Location: Auttagershofen
(48.1940°N, 10.0237°E)
Time: 09:32:03
(UTC+00:00)

SL-23 DEB - Visible Passes

Search period start: 10 April 2026 00:00
Search period end: 20 April 2026 00:00
Orbit: 423 x 3432 km, 51.4° (Epoch: 9 April)

Date Brightness Start Highest point End Pass type
(mag) Time Alt. Az. Time Alt. Az. Time Alt. Az.
10 Apr 9.4 03:58:12 10° SE 04:06:40 15° ESE 04:15:37 10° ENE visible
12 Apr 9.1 04:01:09 10° SSE 04:13:02 22° ESE 04:26:11 10° ENE visible
13 Apr 9.3 03:06:43 10° ESE 03:12:24 12° E 03:18:23 10° E visible
15 Apr 9.0 03:08:15 10° SE 03:18:36 19° ESE 03:30:12 10° ENE visible
17 Apr 8.7 03:12:30 10° SSE 03:24:57 27° ESE 03:39:43 10° ENE visible
18 Apr 8.9 02:15:45 10° SE 02:24:11 16° E 02:33:41 10° ENE visible
19 Apr 8.5 03:17:52 10° S 03:31:30 36° ESE 03:48:25 10° ENE visible
